Location: Tamazert
(32.6352°N, 5.2072°W)
Time: 09:23:21
(UTC+00:00)

Vanguard 3 - Pass Details

Date: 27 September 2022
Orbit: 509 x 3255 km, 33.3° (Epoch: 06 December)

Event Time Altitude Azimuth Distance (km) Brightness Sun altitude
Rises 19:02:39 0° 270° (W) 6,420 13.9 -11.7°
Reaches altitude 10° 19:09:41 10° 251° (WSW) 5,826 12.6 -13.2°
Maximum altitude 19:18:23 15° 223° (SW) 5,674 11.9 -15.0°
Drops below altitude 10° 19:27:39 10° 194° (SSW) 6,166 11.7 -16.9°
Sets 19:35:50 0° 174° (S) 6,985 11.8 -18.6°
